FW5112 Weather Reports


Display with metric or nautical units.
time (UTC)temp
F
wind
direction
speed
MPH
gust
MPH
rain 1hr
in
rain 24hr
in
rain mn
in
humidity
%
barometer
mb
20210802082521 76 219 0.0 4.0 0.00 0.51 0.00 87 1015.8
20210802081524 76 175 0.0 4.0 0.00 0.51 0.00 88 1015.8
20210802080517 76 210 0.0 2.0 0.00 0.51 0.00 88 1015.8
20210802075525 76 227 0.0 4.0 0.00 0.51 0.00 89 1015.8
20210802074531 75 141 0.0 2.0 0.00 0.51 0.00 88 1015.8
20210802073524 75 148 0.0 2.0 0.00 0.51 0.00 89 1015.8
20210802072524 75 94 0.0 4.0 0.00 0.51 0.00 89 1015.8
20210802071516 75 213 0.0 2.0 0.00 0.51 0.00 90 1015.8
20210802070525 75 98 0.0 2.0 0.00 0.51 0.00 90 1015.8
20210802065529 75 96 0.0 2.0 0.00 0.51 0.00 90 1016.2
20210802064521 75 0.0 0.0 0.00 0.51 0.00 91 1016.2
20210802063524 75 140 0.0 2.0 0.00 0.51 0.00 90 1016.2
20210802062531 75 0.0 0.0 0.00 0.51 0.00 91 1016.3
20210802061528 75 0.0 0.0 0.00 0.51 0.00 91 1016.4
20210802060529 75 0.0 0.0 0.00 0.51 0.00 91 1016.5
20210802055516 75 0.0 0.0 0.00 0.51 0.00 91 1016.5
20210802054525 75 0.0 0.0 0.00 0.51 0.00 92 1016.5
20210802053517 75 0.0 0.0 0.00 0.51 0.00 92 1016.5
20210802052521 75 0.0 0.0 0.00 0.51 0.00 92 1016.9
20210802051521 75 0.0 0.0 0.00 0.51 0.00 92 1016.8
20210802050523 75 0.0 0.0 0.00 0.51 0.00 92 1016.5
20210802045528 75 0.0 0.0 0.00 0.51 0.51 92 1016.5
20210802044521 75 0.0 0.0 0.00 0.51 0.51 92 1016.5
20210802043531 75 219 0.0 2.0 0.00 0.51 0.51 91 1016.5
20210802042530 75 172 0.0 2.0 0.00 0.51 0.51 92 1016.5
20210802041516 75 216 0.0 2.0 0.00 0.51 0.51 92 1016.5
20210802040521 75 0.0 0.0 0.00 0.51 0.51 93 1016.5
20210802035526 75 0.0 0.0 0.00 0.51 0.51 93 1016.5
20210802034528 75 204 0.0 2.0 0.00 0.51 0.51 94 1016.9
20210802033529 75 0.0 0.0 0.00 0.51 0.51 94 1016.9
20210802032523 75 95 0.0 2.0 0.00 0.51 0.51 94 1016.9
20210802031529 75 181 0.0 2.0 0.00 0.51 0.51 95 1016.9
20210802030521 75 0.0 0.0 0.00 0.51 0.51 95 1017.0
20210802025522 74 0.0 0.0 0.00 0.51 0.51 94 1016.9
20210802024532 74 113 0.0 2.0 0.00 0.51 0.51 94 1016.9
20210802023529 74 118 0.0 2.0 0.00 0.51 0.51 93 1016.8
20210802022532 74 143 0.0 2.0 0.00 0.51 0.51 93 1016.6
20210802021516 74 99 0.0 2.0 0.00 0.51 0.51 94 1016.8
20210802020525 74 106 0.0 2.0 0.00 0.51 0.51 94 1016.6
20210802015530 74 70 0.0 2.0 0.00 0.51 0.51 95 1016.6
20210802014520 74 87 0.0 2.0 0.00 0.51 0.51 95 1016.6
20210802013527 74 0.0 0.0 0.00 0.51 0.51 97 1016.5
20210802012521 74 0.0 0.0 0.00 0.51 0.51 97 1016.1
20210802011530 74 0.0 0.0 0.00 0.51 0.51 97 1015.8
20210802010525 74 0.0 0.0 0.00 0.51 0.51 97 1015.8
20210802005521 74 0.0 0.0 0.00 0.51 0.51 97 1015.5
20210802004522 74 0.0 0.0 0.00 0.51 0.51 97 1015.5
20210802003524 74 0.0 0.0 0.00 0.51 0.51 97 1015.5
20210802002524 74 0.0 0.0 0.00 0.51 0.51 97 1015.5
20210802001528 75 0.0 0.0 0.00 0.51 0.51 97 1015.2
20210802000521 75 0.0 0.0 0.00 0.51 0.51 97 1014.8
20210801235616 75 0.0 0.0 0.00 0.51 0.51 97 1015.2
20210801234524 75 173 0.0 2.0 0.00 0.51 0.51 97 1015.5
20210801233528 75 0.0 0.0 0.00 0.51 0.51 97 1015.4
20210801232524 75 0.0 0.0 0.00 0.51 0.51 97 1015.2
20210801231530 75 0.0 0.0 0.00 0.51 0.51 97 1015.0
20210801230524 75 141 0.0 2.0 0.00 0.51 0.51 97 1015.1
20210801225528 74 0.0 0.0 0.00 0.51 0.51 97 1015.2
20210801224521 74 0.0 0.0 0.00 0.51 0.51 96 1015.4
20210801223525 74 229 0.0 2.0 0.06 0.51 0.51 96 1016.0
20210801222530 74 205 0.0 2.0 0.49 0.51 0.51 95 1016.2
20210801221521 74 188 0.0 2.0 0.51 0.51 0.51 95 1016.5
20210801220524 73 243 0.0 2.0 0.51 0.51 0.51 95 1016.5
20210801215524 75 0.0 0.0 0.51 0.51 0.51 93 1015.5
20210801214529 80 204 2.0 9.0 0.51 0.51 0.51 92 1015.5
20210801213525 86 218 8.0 27.0 0.44 0.44 0.44 91 1014.4
20210801212525 90 205 6.0 17.0 0.01 0.01 0.01 73 1014.8
20210801211530 91 211 3.0 9.0 0.00 0.00 0.00 64 1014.4
20210801210521 92 215 5.0 9.0 0.00 0.00 0.00 64 1014.1
20210801205520 92 214 4.0 12.0 0.00 0.00 0.00 63 1014.1
20210801204525 92 221 2.0 7.0 0.00 0.00 0.00 60 1014.2
20210801203525 93 212 3.0 7.0 0.00 0.00 0.00 60 1014.3
20210801202525 93 217 2.0 7.0 0.00 0.00 0.00 60 1014.8
20210801201528 92 219 2.0 7.0 0.00 0.00 0.00 60 1014.8
20210801200526 92 235 2.0 7.0 0.00 0.00 0.00 61 1014.8
20210801195529 91 173 2.0 7.0 0.00 0.00 0.00 62 1015.1
20210801194521 91 217 3.0 7.0 0.00 0.00 0.00 63 1015.1
20210801193529 91 222 2.0 7.0 0.00 0.00 0.00 64 1014.9
20210801192524 91 226 2.0 9.0 0.00 0.00 0.00 64 1015.0
20210801191521 91 215 1.0 4.0 0.00 0.00 0.00 64 1015.0
20210801190520 91 136 2.0 7.0 0.00 0.00 0.00 64 1015.2
20210801185528 91 233 2.0 9.0 0.00 0.00 0.00 62 1015.4
20210801184516 91 206 2.0 7.0 0.00 0.00 0.00 63 1015.6
20210801183523 91 232 1.0 7.0 0.00 0.00 0.00 64 1015.8
20210801182524 92 220 1.0 7.0 0.00 0.00 0.00 64 1016.0
20210801181531 93 216 1.0 7.0 0.00 0.00 0.00 63 1016.0
20210801180516 95 148 1.0 7.0 0.00 0.00 0.00 60 1016.2
20210801175526 95 225 1.0 7.0 0.00 0.00 0.00 58 1016.5
20210801174530 94 217 1.0 7.0 0.00 0.00 0.00 56 1016.5
20210801173532 93 227 1.0 7.0 0.00 0.00 0.00 55 1016.9
20210801172525 92 233 0.0 4.0 0.00 0.00 0.00 62 1016.8
20210801171524 93 208 1.0 7.0 0.00 0.00 0.00 64 1016.9
20210801170531 94 111 0.0 4.0 0.00 0.00 0.00 63 1016.9
20210801165523 95 60 0.0 2.0 0.00 0.00 0.00 59 1016.9
20210801164521 96 0.0 0.0 0.00 0.00 0.00 57 1016.9
20210801163520 97 155 0.0 4.0 0.00 0.00 0.00 55 1016.9
20210801162524 96 121 0.0 2.0 0.00 0.00 0.00 54 1016.9
20210801161520 97 115 0.0 2.0 0.00 0.00 0.00 56 1016.6
20210801160522 97 76 0.0 4.0 0.00 0.00 0.00 55 1016.5
20210801155529 96 146 0.0 2.0 0.00 0.00 0.00 53 1016.5
20210801154528 94 158 0.0 4.0 0.00 0.00 0.00 54 1016.5
20210801153516 93 189 0.0 7.0 0.00 0.00 0.00 56 1016.5
20210801152520 93 188 0.0 2.0 0.00 0.00 0.00 59 1016.8
20210801151521 94 67 0.0 2.0 0.00 0.00 0.00 59 1016.9
20210801150524 94 73 0.0 4.0 0.00 0.00 0.00 60 1016.9
20210801145528 95 64 0.0 2.0 0.00 0.00 0.00 60 1016.6
20210801144530 95 76 0.0 2.0 0.00 0.00 0.00 57 1016.5
20210801143529 95 68 0.0 2.0 0.00 0.00 0.00 59 1016.5
20210801142531 94 241 0.0 2.0 0.00 0.00 0.00 59 1016.5
20210801141529 94 269 0.0 2.0 0.00 0.00 0.00 58 1016.5
20210801140531 93 213 0.0 2.0 0.00 0.00 0.00 59 1016.2
20210801135519 93 0.0 0.0 0.00 0.00 0.00 60 1016.1
20210801134520 92 0.0 0.0 0.00 0.00 0.00 62 1015.8
20210801133527 90 341 0.0 4.0 0.00 0.00 0.00 62 1015.8
20210801132520 89 268 0.0 2.0 0.00 0.00 0.00 65 1015.7
20210801131528 87 184 0.0 2.0 0.00 0.00 0.00 66 1015.7
20210801130520 85 97 0.0 2.0 0.00 0.00 0.00 71 1015.8
20210801125523 83 331 0.0 2.0 0.00 0.00 0.00 73 1015.5
20210801124525 81 276 0.0 2.0 0.00 0.00 0.00 75 1015.5
20210801123528 80 0.0 0.0 0.00 0.00 0.00 80 1015.5
20210801122530 79 0.0 0.0 0.00 0.00 0.00 85 1015.5
20210801121523 79 0.0 0.0 0.00 0.00 0.00 87 1015.5
20210801120520 79 0.0 0.0 0.00 0.00 0.00 87 1015.5
20210801115528 79 175 0.0 2.0 0.00 0.00 0.00 87 1015.4
20210801114516 79 304 0.0 2.0 0.00 0.00 0.00 87 1015.5
20210801113531 79 0.0 0.0 0.00 0.00 0.00 85 1015.5
20210801112532 79 0.0 0.0 0.00 0.00 0.00 85 1015.5
20210801111529 79 0.0 0.0 0.00 0.00 0.00 85 1015.2
20210801110520 80 0.0 0.0 0.00 0.00 0.00 84 1015.1
20210801105524 80 0.0 0.0 0.00 0.00 0.00 84 1014.9
20210801104531 80 0.0 0.0 0.00 0.00 0.00 84 1014.8
20210801103520 80 0.0 0.0 0.00 0.00 0.00 82 1014.8
20210801102520 80 342 0.0 2.0 0.00 0.00 0.00 81 1014.8
20210801101519 80 0.0 0.0 0.00 0.00 0.00 83 1014.8
20210801100523 81 0.0 0.0 0.00 0.00 0.00 82 1014.7
20210801095524 81 0.0 0.0 0.00 0.00 0.00 82 1014.8
20210801094524 81 0.0 0.0 0.00 0.00 0.00 81 1014.8
20210801093529 81 0.0 0.0 0.00 0.00 0.00 79 1014.5
20210801092530 81 324 0.0 2.0 0.00 0.00 0.00 79 1014.5
20210801091523 81 0.0 0.0 0.00 0.00 0.00 80 1014.4
20210801090524 82 0.0 0.0 0.00 0.00 0.00 80 1014.5
20210801085528 82 0.0 0.0 0.00 0.00 0.00 79 1014.5
20210801084519 82 0.0 0.0 0.00 0.00 0.00 78 1014.5
20210801083524 82 303 0.0 2.0 0.00 0.00 0.00 78 1014.5